<?xml version="1.0"?>
<gpx xmlns="http://www.topografix.com/GPX/1/1" xmlns:xsi="http://www.w3.org/2001/XMLSchema-instance" version="1.1" creator="GPX RubyGem 1.0.0 -- http://dougfales.github.io/gpx/" xsi:schemaLocation="http://www.topografix.com/GPX/1/1 http://www.topografix.com/GPX/1/1/gpx.xsd">
  <metadata>
    <name/>
    <time>2026-05-08T14:44:31+00:00</time>
    <bound minlat="90.0" minlon="180.0" maxlat="-90.0" maxlon="-180.0"/>
  </metadata>
  <trk>
    <name/>
    <trkseg>
      <trkpt lat="47.502879" lon="7.532888">
        <time>1970-01-01T00:00:00+00:00</time>
        <ele>312.0</ele>
      </trkpt>
      <trkpt lat="47.502445" lon="7.532836">
        <time>1970-01-01T00:00:00+00:00</time>
        <ele>314.0</ele>
      </trkpt>
      <trkpt lat="47.502173" lon="7.532804">
        <time>1970-01-01T00:00:00+00:00</time>
        <ele>315.0</ele>
      </trkpt>
      <trkpt lat="47.502228" lon="7.532501">
        <time>1970-01-01T00:00:00+00:00</time>
        <ele>315.0</ele>
      </trkpt>
      <trkpt lat="47.501291" lon="7.532497">
        <time>1970-01-01T00:00:00+00:00</time>
        <ele>319.0</ele>
      </trkpt>
      <trkpt lat="47.500106" lon="7.532413">
        <time>1970-01-01T00:00:00+00:00</time>
        <ele>326.0</ele>
      </trkpt>
      <trkpt lat="47.499504" lon="7.532396">
        <time>1970-01-01T00:00:00+00:00</time>
        <ele>330.0</ele>
      </trkpt>
      <trkpt lat="47.498522" lon="7.532517">
        <time>1970-01-01T00:00:00+00:00</time>
        <ele>337.0</ele>
      </trkpt>
      <trkpt lat="47.497485" lon="7.532642">
        <time>1970-01-01T00:00:00+00:00</time>
        <ele>343.0</ele>
      </trkpt>
      <trkpt lat="47.497486" lon="7.533363">
        <time>1970-01-01T00:00:00+00:00</time>
        <ele>340.0</ele>
      </trkpt>
      <trkpt lat="47.497446" lon="7.53442">
        <time>1970-01-01T00:00:00+00:00</time>
        <ele>336.0</ele>
      </trkpt>
      <trkpt lat="47.497529" lon="7.535477">
        <time>1970-01-01T00:00:00+00:00</time>
        <ele>334.0</ele>
      </trkpt>
      <trkpt lat="47.496382" lon="7.535552">
        <time>1970-01-01T00:00:00+00:00</time>
        <ele>327.0</ele>
      </trkpt>
      <trkpt lat="47.496269" lon="7.535535">
        <time>1970-01-01T00:00:00+00:00</time>
        <ele>327.0</ele>
      </trkpt>
      <trkpt lat="47.496176" lon="7.535285">
        <time>1970-01-01T00:00:00+00:00</time>
        <ele>328.0</ele>
      </trkpt>
      <trkpt lat="47.495916" lon="7.534843">
        <time>1970-01-01T00:00:00+00:00</time>
        <ele>329.0</ele>
      </trkpt>
      <trkpt lat="47.495795" lon="7.534636">
        <time>1970-01-01T00:00:00+00:00</time>
        <ele>329.0</ele>
      </trkpt>
      <trkpt lat="47.495678" lon="7.53418">
        <time>1970-01-01T00:00:00+00:00</time>
        <ele>329.0</ele>
      </trkpt>
      <trkpt lat="47.495512" lon="7.533381">
        <time>1970-01-01T00:00:00+00:00</time>
        <ele>330.0</ele>
      </trkpt>
      <trkpt lat="47.49541" lon="7.532837">
        <time>1970-01-01T00:00:00+00:00</time>
        <ele>333.0</ele>
      </trkpt>
      <trkpt lat="47.495382" lon="7.532571">
        <time>1970-01-01T00:00:00+00:00</time>
        <ele>334.0</ele>
      </trkpt>
      <trkpt lat="47.495197" lon="7.531827">
        <time>1970-01-01T00:00:00+00:00</time>
        <ele>333.0</ele>
      </trkpt>
      <trkpt lat="47.495152" lon="7.531858">
        <time>1970-01-01T00:00:00+00:00</time>
        <ele>333.0</ele>
      </trkpt>
      <trkpt lat="47.495095" lon="7.531894">
        <time>1970-01-01T00:00:00+00:00</time>
        <ele>333.0</ele>
      </trkpt>
      <trkpt lat="47.495051" lon="7.531918">
        <time>1970-01-01T00:00:00+00:00</time>
        <ele>333.0</ele>
      </trkpt>
      <trkpt lat="47.494992" lon="7.532124">
        <time>1970-01-01T00:00:00+00:00</time>
        <ele>333.0</ele>
      </trkpt>
      <trkpt lat="47.494965" lon="7.53221">
        <time>1970-01-01T00:00:00+00:00</time>
        <ele>333.0</ele>
      </trkpt>
      <trkpt lat="47.494936" lon="7.53227">
        <time>1970-01-01T00:00:00+00:00</time>
        <ele>332.0</ele>
      </trkpt>
      <trkpt lat="47.494871" lon="7.532286">
        <time>1970-01-01T00:00:00+00:00</time>
        <ele>332.0</ele>
      </trkpt>
      <trkpt lat="47.494601" lon="7.532267">
        <time>1970-01-01T00:00:00+00:00</time>
        <ele>331.0</ele>
      </trkpt>
      <trkpt lat="47.494601" lon="7.532267">
        <time>1970-01-01T00:00:00+00:00</time>
        <ele>331.0</ele>
      </trkpt>
      <trkpt lat="47.494871" lon="7.532286">
        <time>1970-01-01T00:00:00+00:00</time>
        <ele>332.0</ele>
      </trkpt>
      <trkpt lat="47.494936" lon="7.53227">
        <time>1970-01-01T00:00:00+00:00</time>
        <ele>332.0</ele>
      </trkpt>
      <trkpt lat="47.494965" lon="7.53221">
        <time>1970-01-01T00:00:00+00:00</time>
        <ele>333.0</ele>
      </trkpt>
      <trkpt lat="47.494992" lon="7.532124">
        <time>1970-01-01T00:00:00+00:00</time>
        <ele>333.0</ele>
      </trkpt>
      <trkpt lat="47.495051" lon="7.531918">
        <time>1970-01-01T00:00:00+00:00</time>
        <ele>333.0</ele>
      </trkpt>
      <trkpt lat="47.495095" lon="7.531894">
        <time>1970-01-01T00:00:00+00:00</time>
        <ele>333.0</ele>
      </trkpt>
      <trkpt lat="47.495152" lon="7.531858">
        <time>1970-01-01T00:00:00+00:00</time>
        <ele>333.0</ele>
      </trkpt>
      <trkpt lat="47.495197" lon="7.531827">
        <time>1970-01-01T00:00:00+00:00</time>
        <ele>333.0</ele>
      </trkpt>
      <trkpt lat="47.495382" lon="7.532571">
        <time>1970-01-01T00:00:00+00:00</time>
        <ele>334.0</ele>
      </trkpt>
      <trkpt lat="47.49541" lon="7.532837">
        <time>1970-01-01T00:00:00+00:00</time>
        <ele>333.0</ele>
      </trkpt>
      <trkpt lat="47.495512" lon="7.533381">
        <time>1970-01-01T00:00:00+00:00</time>
        <ele>330.0</ele>
      </trkpt>
      <trkpt lat="47.495678" lon="7.53418">
        <time>1970-01-01T00:00:00+00:00</time>
        <ele>329.0</ele>
      </trkpt>
      <trkpt lat="47.495795" lon="7.534636">
        <time>1970-01-01T00:00:00+00:00</time>
        <ele>329.0</ele>
      </trkpt>
      <trkpt lat="47.495916" lon="7.534843">
        <time>1970-01-01T00:00:00+00:00</time>
        <ele>329.0</ele>
      </trkpt>
      <trkpt lat="47.496176" lon="7.535285">
        <time>1970-01-01T00:00:00+00:00</time>
        <ele>328.0</ele>
      </trkpt>
      <trkpt lat="47.496269" lon="7.535535">
        <time>1970-01-01T00:00:00+00:00</time>
        <ele>327.0</ele>
      </trkpt>
      <trkpt lat="47.496382" lon="7.535552">
        <time>1970-01-01T00:00:00+00:00</time>
        <ele>327.0</ele>
      </trkpt>
      <trkpt lat="47.497529" lon="7.535477">
        <time>1970-01-01T00:00:00+00:00</time>
        <ele>334.0</ele>
      </trkpt>
      <trkpt lat="47.497446" lon="7.53442">
        <time>1970-01-01T00:00:00+00:00</time>
        <ele>336.0</ele>
      </trkpt>
      <trkpt lat="47.497486" lon="7.533363">
        <time>1970-01-01T00:00:00+00:00</time>
        <ele>340.0</ele>
      </trkpt>
      <trkpt lat="47.497485" lon="7.532642">
        <time>1970-01-01T00:00:00+00:00</time>
        <ele>343.0</ele>
      </trkpt>
      <trkpt lat="47.498522" lon="7.532517">
        <time>1970-01-01T00:00:00+00:00</time>
        <ele>337.0</ele>
      </trkpt>
      <trkpt lat="47.499504" lon="7.532396">
        <time>1970-01-01T00:00:00+00:00</time>
        <ele>330.0</ele>
      </trkpt>
      <trkpt lat="47.500106" lon="7.532413">
        <time>1970-01-01T00:00:00+00:00</time>
        <ele>326.0</ele>
      </trkpt>
      <trkpt lat="47.501291" lon="7.532497">
        <time>1970-01-01T00:00:00+00:00</time>
        <ele>319.0</ele>
      </trkpt>
      <trkpt lat="47.502228" lon="7.532501">
        <time>1970-01-01T00:00:00+00:00</time>
        <ele>315.0</ele>
      </trkpt>
      <trkpt lat="47.502173" lon="7.532804">
        <time>1970-01-01T00:00:00+00:00</time>
        <ele>315.0</ele>
      </trkpt>
      <trkpt lat="47.502445" lon="7.532836">
        <time>1970-01-01T00:00:00+00:00</time>
        <ele>314.0</ele>
      </trkpt>
      <trkpt lat="47.502879" lon="7.532888">
        <time>1970-01-01T00:00:00+00:00</time>
        <ele>312.0</ele>
      </trkpt>
    </trkseg>
  </trk>
</gpx>
